Time,TemperatureF,DewpointF,PressureIn,WindDirection,WindDirectionDegrees,WindSpeedMPH,WindSpeedGustMPH,Humidity,HourlyPrecipIn,Conditions,Clouds,dailyrainin,SoftwareType,DateUTC
2013-02-27 00:00:00,22.8,17.6,29.89,ENE,67,0.0,0.0,80,0.00,,,0.00,WUHU21623XXSP,2013-02-27 06:00:00,
2013-02-27 00:05:00,22.8,17.3,29.89,ENE,67,0.0,0.0,79,0.00,,,0.00,WUHU21623XXSP,2013-02-27 06:05:00,
2013-02-27 00:10:00,22.8,17.3,29.88,ENE,67,0.0,0.0,79,0.00,,,0.00,WUHU21623XXSP,2013-02-27 06:10:00,
2013-02-27 00:15:00,22.5,17.2,29.88,ENE,67,0.0,0.0,80,0.00,,,0.00,WUHU21623XXSP,2013-02-27 06:15:00,
2013-02-27 00:20:00,22.6,17.4,29.88,ENE,67,0.0,0.0,80,0.00,,,0.00,WUHU21623XXSP,2013-02-27 06:20:00,
2013-02-27 00:25:00,22.5,17.2,29.88,ENE,67,0.0,0.0,80,0.00,,,0.00,WUHU21623XXSP,2013-02-27 06:25:00,
2013-02-27 00:30:00,22.3,17.1,29.88,ENE,67,0.0,0.0,80,0.00,,,0.00,WUHU21623XXSP,2013-02-27 06:30:00,
2013-02-27 00:35:00,22.8,17.9,29.88,ENE,67,0.0,0.0,81,0.00,,,0.00,WUHU21623XXSP,2013-02-27 06:35:00,
2013-02-27 00:40:00,22.6,17.4,29.88,ENE,67,0.0,0.0,80,0.00,,,0.00,WUHU21623XXSP,2013-02-27 06:40:00,
2013-02-27 00:45:00,21.9,17.0,29.88,ENE,67,0.0,0.0,81,0.00,,,0.00,WUHU21623XXSP,2013-02-27 06:45:00,
2013-02-27 00:50:00,21.7,17.1,29.88,ENE,67,0.9,0.9,82,0.00,,,0.00,WUHU21623XXSP,2013-02-27 06:50:00,
2013-02-27 00:55:00,21.7,17.1,29.88,ENE,67,0.4,0.9,82,0.00,,,0.00,WUHU21623XXSP,2013-02-27 06:55:00,
2013-02-27 01:00:00,21.4,16.7,29.88,ENE,67,0.0,0.9,82,0.00,,,0.00,WUHU21623XXSP,2013-02-27 07:00:00,
2013-02-27 01:05:00,21.6,17.1,29.88,ENE,67,0.0,0.0,83,0.00,,,0.00,WUHU21623XXSP,2013-02-27 07:05:00,
2013-02-27 01:10:00,21.7,17.1,29.88,ENE,67,0.0,0.0,82,0.00,,,0.00,WUHU21623XXSP,2013-02-27 07:10:00,
2013-02-27 01:15:00,21.6,17.1,29.88,ENE,67,0.0,0.0,83,0.00,,,0.00,WUHU21623XXSP,2013-02-27 07:15:00,
2013-02-27 01:20:00,22.8,18.4,29.88,ENE,67,0.0,0.0,83,0.00,,,0.00,WUHU21623XXSP,2013-02-27 07:20:00,
2013-02-27 01:25:00,21.9,17.2,29.88,ENE,67,0.0,0.0,82,0.00,,,0.00,WUHU21623XXSP,2013-02-27 07:25:00,
2013-02-27 01:30:00,21.9,17.5,29.88,ENE,67,0.0,0.0,83,0.00,,,0.00,WUHU21623XXSP,2013-02-27 07:30:00,
2013-02-27 01:35:00,21.9,17.5,29.88,ENE,67,0.0,0.0,83,0.00,,,0.00,WUHU21623XXSP,2013-02-27 07:35:00,
2013-02-27 01:40:00,21.7,17.3,29.88,ENE,67,0.0,0.0,83,0.00,,,0.00,WUHU21623XXSP,2013-02-27 07:40:00,
2013-02-27 01:45:00,22.1,17.7,29.88,ENE,67,0.0,0.0,83,0.00,,,0.00,WUHU21623XXSP,2013-02-27 07:45:00,
2013-02-27 01:50:00,20.8,15.9,29.87,ENE,67,0.0,0.0,81,0.00,,,0.00,WUHU21623XXSP,2013-02-27 07:50:00,
2013-02-27 01:55:00,19.2,14.5,29.88,ENE,67,0.0,0.0,82,0.00,,,0.00,WUHU21623XXSP,2013-02-27 07:55:00,
2013-02-27 02:00:00,19.9,15.8,29.88,ENE,67,0.0,0.0,84,0.00,,,0.00,WUHU21623XXSP,2013-02-27 08:00:00,
2013-02-27 02:05:00,20.8,16.7,29.87,ENE,67,0.0,0.0,84,0.00,,,0.00,WUHU21623XXSP,2013-02-27 08:05:00,
2013-02-27 02:10:00,20.5,16.1,29.87,ENE,67,0.0,0.0,83,0.00,,,0.00,WUHU21623XXSP,2013-02-27 08:10:00,
2013-02-27 02:15:00,20.5,16.3,29.87,ENE,67,0.0,0.0,84,0.00,,,0.00,WUHU21623XXSP,2013-02-27 08:15:00,
2013-02-27 02:20:00,20.1,15.7,29.87,ENE,67,0.0,0.0,83,0.00,,,0.00,WUHU21623XXSP,2013-02-27 08:20:00,
2013-02-27 02:25:00,20.5,16.3,29.88,ENE,67,0.0,0.0,84,0.00,,,0.00,WUHU21623XXSP,2013-02-27 08:25:00,
2013-02-27 02:30:00,20.5,16.3,29.87,ENE,67,0.0,0.0,84,0.00,,,0.00,WUHU21623XXSP,2013-02-27 08:30:00,
2013-02-27 02:35:00,21.4,17.2,29.87,ENE,67,0.0,0.0,84,0.00,,,0.00,WUHU21623XXSP,2013-02-27 08:35:00,
2013-02-27 02:40:00,21.7,17.6,29.87,ENE,67,0.0,0.0,84,0.00,,,0.00,WUHU21623XXSP,2013-02-27 08:40:00,
2013-02-27 02:45:00,21.7,17.6,29.87,ENE,67,0.0,0.0,84,0.00,,,0.00,WUHU21623XXSP,2013-02-27 08:45:00,
2013-02-27 02:50:00,21.4,17.2,29.87,ENE,67,1.1,1.1,84,0.00,,,0.00,WUHU21623XXSP,2013-02-27 08:50:00,
2013-02-27 02:55:00,21.4,17.2,29.87,ENE,67,0.0,1.1,84,0.00,,,0.00,WUHU21623XXSP,2013-02-27 08:55:00,
2013-02-27 03:00:00,21.4,17.2,29.86,ENE,67,0.0,0.0,84,0.00,,,0.00,WUHU21623XXSP,2013-02-27 09:00:00,
2013-02-27 03:05:00,21.4,17.2,29.86,ENE,67,0.0,0.0,84,0.00,,,0.00,WUHU21623XXSP,2013-02-27 09:05:00,
2013-02-27 03:10:00,21.0,16.9,29.86,ENE,67,0.0,0.0,84,0.00,,,0.00,WUHU21623XXSP,2013-02-27 09:10:00,
2013-02-27 03:15:00,20.1,16.0,29.86,ENE,67,0.0,0.0,84,0.00,,,0.00,WUHU21623XXSP,2013-02-27 09:15:00,
2013-02-27 03:20:00,19.9,15.8,29.86,ENE,67,0.0,0.0,84,0.00,,,0.00,WUHU21623XXSP,2013-02-27 09:20:00,
2013-02-27 03:25:00,19.6,15.4,29.87,ENE,67,0.0,0.0,84,0.00,,,0.00,WUHU21623XXSP,2013-02-27 09:25:00,
2013-02-27 03:30:00,19.6,15.4,29.87,ENE,67,0.0,0.0,84,0.00,,,0.00,WUHU21623XXSP,2013-02-27 09:30:00,
2013-02-27 03:35:00,20.3,16.4,29.87,ENE,67,0.0,0.0,85,0.00,,,0.00,WUHU21623XXSP,2013-02-27 09:35:00,
2013-02-27 03:40:00,20.5,16.6,29.87,ENE,67,0.0,0.0,85,0.00,,,0.00,WUHU21623XXSP,2013-02-27 09:40:00,
2013-02-27 03:45:00,20.8,17.0,29.87,ENE,67,0.0,0.0,85,0.00,,,0.00,WUHU21623XXSP,2013-02-27 09:45:00,
2013-02-27 03:50:00,20.1,16.3,29.87,ENE,67,0.0,0.0,85,0.00,,,0.00,WUHU21623XXSP,2013-02-27 09:50:00,
2013-02-27 03:55:00,19.9,16.1,29.87,ENE,67,0.0,0.0,85,0.00,,,0.00,WUHU21623XXSP,2013-02-27 09:55:00,
2013-02-27 04:00:00,20.1,16.3,29.87,ENE,67,0.0,0.0,85,0.00,,,0.00,WUHU21623XXSP,2013-02-27 10:00:00,
2013-02-27 04:05:00,19.6,15.7,29.87,ENE,67,0.0,0.0,85,0.00,,,0.00,WUHU21623XXSP,2013-02-27 10:05:00,
2013-02-27 04:10:00,19.8,15.9,29.87,ENE,67,0.0,0.0,85,0.00,,,0.00,WUHU21623XXSP,2013-02-27 10:10:00,
2013-02-27 04:15:00,19.9,16.1,29.87,ENE,67,0.0,0.0,85,0.00,,,0.00,WUHU21623XXSP,2013-02-27 10:15:00,
2013-02-27 04:20:00,19.6,15.7,29.87,ENE,67,0.0,0.0,85,0.00,,,0.00,WUHU21623XXSP,2013-02-27 10:20:00,
2013-02-27 04:25:00,19.2,15.3,29.87,ENE,67,0.0,0.0,85,0.00,,,0.00,WUHU21623XXSP,2013-02-27 10:25:00,
2013-02-27 04:30:00,19.0,15.2,29.87,ENE,67,0.0,0.0,85,0.00,,,0.00,WUHU21623XXSP,2013-02-27 10:30:00,
2013-02-27 04:35:00,17.2,12.8,29.87,ENE,67,0.0,0.0,83,0.00,,,0.00,WUHU21623XXSP,2013-02-27 10:35:00,
2013-02-27 04:40:00,16.9,12.8,29.87,ENE,67,0.0,0.0,84,0.00,,,0.00,WUHU21623XXSP,2013-02-27 10:40:00,
2013-02-27 04:45:00,17.2,13.1,29.87,ENE,67,0.0,0.0,84,0.00,,,0.00,WUHU21623XXSP,2013-02-27 10:45:00,
2013-02-27 04:50:00,16.9,12.8,29.86,ENE,67,0.0,0.0,84,0.00,,,0.00,WUHU21623XXSP,2013-02-27 10:50:00,
2013-02-27 04:55:00,17.1,12.9,29.86,ENE,67,0.0,0.0,84,0.00,,,0.00,WUHU21623XXSP,2013-02-27 10:55:00,
2013-02-27 05:00:00,17.4,13.6,29.86,ENE,67,0.0,0.0,85,0.00,,,0.00,WUHU21623XXSP,2013-02-27 11:00:00,
2013-02-27 05:05:00,17.8,13.9,29.86,ENE,67,0.0,0.0,85,0.00,,,0.00,WUHU21623XXSP,2013-02-27 11:05:00,
2013-02-27 05:10:00,17.8,13.9,29.86,ENE,67,0.0,0.0,85,0.00,,,0.00,WUHU21623XXSP,2013-02-27 11:10:00,
2013-02-27 05:15:00,18.1,14.3,29.86,ENE,67,0.0,0.0,85,0.00,,,0.00,WUHU21623XXSP,2013-02-27 11:15:00,
2013-02-27 05:20:00,18.5,14.6,29.86,ENE,67,0.0,0.0,85,0.00,,,0.00,WUHU21623XXSP,2013-02-27 11:20:00,
2013-02-27 05:25:00,18.7,14.8,29.86,ENE,67,0.0,0.0,85,0.00,,,0.00,WUHU21623XXSP,2013-02-27 11:25:00,
2013-02-27 05:30:00,18.5,14.6,29.86,ENE,67,0.0,0.0,85,0.00,,,0.00,WUHU21623XXSP,2013-02-27 11:30:00,
2013-02-27 05:35:00,18.5,14.6,29.85,ENE,67,0.0,0.0,85,0.00,,,0.00,WUHU21623XXSP,2013-02-27 11:35:00,
2013-02-27 05:40:00,18.5,14.6,29.86,ENE,67,0.0,0.0,85,0.00,,,0.00,WUHU21623XXSP,2013-02-27 11:40:00,
2013-02-27 05:45:00,18.7,14.8,29.85,ENE,67,0.0,0.0,85,0.00,,,0.00,WUHU21623XXSP,2013-02-27 11:45:00,
2013-02-27 05:50:00,18.5,14.6,29.86,ENE,67,0.0,0.0,85,0.00,,,0.00,WUHU21623XXSP,2013-02-27 11:50:00,
2013-02-27 05:55:00,18.3,14.4,29.86,ENE,67,0.0,0.0,85,0.00,,,0.00,WUHU21623XXSP,2013-02-27 11:55:00,
2013-02-27 06:00:00,18.3,14.4,29.86,ENE,67,0.0,0.0,85,0.00,,,0.00,WUHU21623XXSP,2013-02-27 12:00:00,
2013-02-27 06:05:00,18.1,14.3,29.85,ENE,67,0.0,0.0,85,0.00,,,0.00,WUHU21623XXSP,2013-02-27 12:05:00,
2013-02-27 06:10:00,18.1,14.3,29.86,ENE,67,0.0,0.0,85,0.00,,,0.00,WUHU21623XXSP,2013-02-27 12:10:00,
2013-02-27 06:15:00,18.5,14.6,29.86,ENE,67,0.0,0.0,85,0.00,,,0.00,WUHU21623XXSP,2013-02-27 12:15:00,
2013-02-27 06:20:00,18.3,14.4,29.86,ENE,67,0.0,0.0,85,0.00,,,0.00,WUHU21623XXSP,2013-02-27 12:20:00,
2013-02-27 06:25:00,17.8,13.6,29.86,ENE,67,0.0,0.0,84,0.00,,,0.00,WUHU21623XXSP,2013-02-27 12:25:00,
2013-02-27 06:30:00,17.8,13.6,29.86,ENE,67,0.0,0.0,84,0.00,,,0.00,WUHU21623XXSP,2013-02-27 12:30:00,
2013-02-27 06:35:00,17.8,13.6,29.86,ENE,67,0.0,0.0,84,0.00,,,0.00,WUHU21623XXSP,2013-02-27 12:35:00,
2013-02-27 06:40:00,18.3,14.4,29.86,ENE,67,0.0,0.0,85,0.00,,,0.00,WUHU21623XXSP,2013-02-27 12:40:00,
2013-02-27 06:45:00,18.3,14.4,29.86,ENE,67,0.0,0.0,85,0.00,,,0.00,WUHU21623XXSP,2013-02-27 12:45:00,
2013-02-27 06:50:00,18.9,15.0,29.86,ENE,67,0.0,0.0,85,0.00,,,0.00,WUHU21623XXSP,2013-02-27 12:50:00,
2013-02-27 06:55:00,18.9,15.0,29.86,NE,45,0.0,0.0,85,0.00,,,0.00,WUHU21623XXSP,2013-02-27 12:55:00,
2013-02-27 07:00:00,17.8,13.6,29.86,NE,45,0.0,0.0,84,0.00,,,0.00,WUHU21623XXSP,2013-02-27 13:00:00,
2013-02-27 07:05:00,18.1,14.3,29.86,NE,45,0.0,0.0,85,0.00,,,0.00,WUHU21623XXSP,2013-02-27 13:05:00,
2013-02-27 07:10:00,17.8,13.6,29.86,NE,45,0.0,0.0,84,0.00,,,0.00,WUHU21623XXSP,2013-02-27 13:10:00,
2013-02-27 07:15:00,18.0,13.8,29.86,NE,45,0.0,0.0,84,0.00,,,0.00,WUHU21623XXSP,2013-02-27 13:15:00,
2013-02-27 07:20:00,18.1,14.3,29.86,NE,45,0.0,0.0,85,0.00,,,0.00,WUHU21623XXSP,2013-02-27 13:20:00,
2013-02-27 07:25:00,18.1,14.3,29.87,NE,45,0.0,0.0,85,0.00,,,0.00,WUHU21623XXSP,2013-02-27 13:25:00,
2013-02-27 07:30:00,17.8,13.6,29.87,NE,45,0.0,0.0,84,0.00,,,0.00,WUHU21623XXSP,2013-02-27 13:30:00,
2013-02-27 07:35:00,17.2,13.1,29.87,NE,45,0.0,0.0,84,0.00,,,0.00,WUHU21623XXSP,2013-02-27 13:35:00,
2013-02-27 07:40:00,18.1,14.3,29.87,NE,45,0.0,0.0,85,0.00,,,0.00,WUHU21623XXSP,2013-02-27 13:40:00,
2013-02-27 07:45:00,18.3,14.4,29.87,NE,45,0.0,0.0,85,0.00,,,0.00,WUHU21623XXSP,2013-02-27 13:45:00,
2013-02-27 07:50:00,18.3,14.4,29.87,NE,45,0.0,0.0,85,0.00,,,0.00,WUHU21623XXSP,2013-02-27 13:50:00,
2013-02-27 07:55:00,18.3,14.4,29.87,NE,45,0.0,0.0,85,0.00,,,0.00,WUHU21623XXSP,2013-02-27 13:55:00,
2013-02-27 08:00:00,18.0,13.8,29.87,NE,45,0.0,0.0,84,0.00,,,0.00,WUHU21623XXSP,2013-02-27 14:00:00,
2013-02-27 08:05:00,18.1,14.3,29.87,NE,45,0.0,0.0,85,0.00,,,0.00,WUHU21623XXSP,2013-02-27 14:05:00,
2013-02-27 08:10:00,18.3,14.4,29.87,NE,45,0.0,0.0,85,0.00,,,0.00,WUHU21623XXSP,2013-02-27 14:10:00,
2013-02-27 08:15:00,19.0,14.9,29.87,NE,45,0.0,0.0,84,0.00,,,0.00,WUHU21623XXSP,2013-02-27 14:15:00,
2013-02-27 08:20:00,18.3,14.2,29.87,North,0,0.0,0.0,84,0.00,,,0.00,WUHU21623XXSP,2013-02-27 14:20:00,
2013-02-27 08:25:00,19.2,15.1,29.87,North,0,0.0,0.0,84,0.00,,,0.00,WUHU21623XXSP,2013-02-27 14:25:00,
2013-02-27 08:30:00,20.1,16.0,29.87,North,0,0.0,0.0,84,0.00,,,0.00,WUHU21623XXSP,2013-02-27 14:30:00,
2013-02-27 08:35:00,21.0,16.9,29.88,NNE,27,0.6,2.5,84,0.00,,,0.00,WUHU21623XXSP,2013-02-27 14:35:00,
2013-02-27 08:40:00,21.0,16.6,29.87,North,0,1.6,2.5,83,0.00,,,0.00,WUHU21623XXSP,2013-02-27 14:40:00,
2013-02-27 08:45:00,21.7,17.1,29.87,NNE,22,0.7,1.6,82,0.00,,,0.00,WUHU21623XXSP,2013-02-27 14:45:00,
2013-02-27 08:50:00,21.9,17.2,29.87,NNE,22,0.0,1.6,82,0.00,,,0.00,WUHU21623XXSP,2013-02-27 14:50:00,
2013-02-27 08:55:00,22.6,18.0,29.87,ENE,67,1.1,1.6,82,0.00,,,0.00,WUHU21623XXSP,2013-02-27 14:55:00,
2013-02-27 09:00:00,23.2,18.5,29.87,ENE,67,1.8,1.8,82,0.00,,,0.00,WUHU21623XXSP,2013-02-27 15:00:00,
2013-02-27 09:05:00,23.5,18.3,29.87,NE,44,2.2,4.5,80,0.00,,,0.00,WUHU21623XXSP,2013-02-27 15:05:00,
2013-02-27 09:10:00,24.1,18.9,29.87,NNE,16,1.5,4.7,80,0.00,,,0.00,WUHU21623XXSP,2013-02-27 15:10:00,
2013-02-27 09:15:00,24.4,19.2,29.87,North,0,1.8,4.7,80,0.00,,,0.00,WUHU21623XXSP,2013-02-27 15:15:00,
2013-02-27 09:20:00,25.2,19.3,29.87,NNE,12,1.8,4.0,78,0.00,,,0.00,WUHU21623XXSP,2013-02-27 15:20:00,
2013-02-27 09:25:00,25.5,19.6,29.88,NNE,22,3.4,4.0,78,0.00,,,0.00,WUHU21623XXSP,2013-02-27 15:25:00,
2013-02-27 09:30:00,25.9,19.3,29.87,ENE,67,2.9,6.9,76,0.00,,,0.00,WUHU21623XXSP,2013-02-27 15:30:00,
2013-02-27 09:35:00,25.9,19.6,29.87,North,349,1.0,6.9,77,0.00,,,0.00,WUHU21623XXSP,2013-02-27 15:35:00,
2013-02-27 09:40:00,26.1,19.5,29.87,NNE,22,2.0,4.0,76,0.00,,,0.00,WUHU21623XXSP,2013-02-27 15:40:00,
2013-02-27 09:45:00,26.2,19.3,29.87,NNE,22,3.6,4.0,75,0.00,,,0.00,WUHU21623XXSP,2013-02-27 15:45:00,
2013-02-27 09:50:00,26.2,19.6,29.87,NNE,22,4.7,4.7,76,0.00,,,0.00,WUHU21623XXSP,2013-02-27 15:50:00,
2013-02-27 09:55:00,26.8,19.9,29.88,NE,45,2.9,4.7,75,0.00,,,0.00,WUHU21623XXSP,2013-02-27 15:55:00,
2013-02-27 10:00:00,26.8,19.5,29.87,NNE,33,3.8,6.5,74,0.00,,,0.00,WUHU21623XXSP,2013-02-27 16:00:00,
2013-02-27 10:05:00,26.6,19.7,29.88,SE,135,2.9,6.5,75,0.00,,,0.00,WUHU21623XXSP,2013-02-27 16:05:00,
2013-02-27 10:10:00,26.4,19.5,29.88,NNE,33,2.5,5.4,75,0.00,,,0.00,WUHU21623XXSP,2013-02-27 16:10:00,
2013-02-27 10:15:00,26.4,19.2,29.88,East,90,2.2,5.4,74,0.00,,,0.00,WUHU21623XXSP,2013-02-27 16:15:00,
2013-02-27 10:20:00,27.1,20.2,29.88,North,354,2.3,5.4,75,0.00,,,0.00,WUHU21623XXSP,2013-02-27 16:20:00,
2013-02-27 10:25:00,27.0,19.7,29.88,NE,39,3.5,6.0,74,0.00,,,0.00,WUHU21623XXSP,2013-02-27 16:25:00,
2013-02-27 10:30:00,26.4,19.2,29.88,North,0,3.1,7.2,74,0.00,,,0.00,WUHU21623XXSP,2013-02-27 16:30:00,
2013-02-27 10:35:00,27.1,20.2,29.87,NNE,22,2.5,7.2,75,0.00,,,0.00,WUHU21623XXSP,2013-02-27 16:35:00,
2013-02-27 10:40:00,27.1,19.6,29.87,North,0,4.0,5.4,73,0.00,,,0.00,WUHU21623XXSP,2013-02-27 16:40:00,
2013-02-27 10:45:00,26.8,19.5,29.87,NNE,22,6.7,6.7,74,0.00,,,0.00,WUHU21623XXSP,2013-02-27 16:45:00,
2013-02-27 10:50:00,27.7,20.1,29.88,NE,45,4.7,6.7,73,0.00,,,0.00,WUHU21623XXSP,2013-02-27 16:50:00,
2013-02-27 10:55:00,26.8,19.2,29.87,NE,38,1.5,5.6,73,0.00,,,0.00,WUHU21623XXSP,2013-02-27 16:55:00,
2013-02-27 11:00:00,26.2,19.0,29.87,NE,51,2.5,4.9,74,0.00,,,0.00,WUHU21623XXSP,2013-02-27 17:00:00,
2013-02-27 11:05:00,26.2,19.3,29.87,NE,48,2.2,5.6,75,0.00,,,0.00,WUHU21623XXSP,2013-02-27 17:05:00,
2013-02-27 11:10:00,27.1,19.6,29.87,North,0,5.6,7.2,73,0.00,,,0.00,WUHU21623XXSP,2013-02-27 17:10:00,
2013-02-27 11:15:00,27.0,19.1,29.88,North,0,3.6,7.2,72,0.00,,,0.00,WUHU21623XXSP,2013-02-27 17:15:00,
2013-02-27 11:20:00,26.4,18.9,29.88,NNE,22,3.6,6.9,73,0.00,,,0.00,WUHU21623XXSP,2013-02-27 17:20:00,
2013-02-27 11:25:00,26.8,19.2,29.88,NNE,18,0.6,6.9,73,0.00,,,0.00,WUHU21623XXSP,2013-02-27 17:25:00,
2013-02-27 11:30:00,26.4,18.6,29.88,ENE,61,2.6,6.3,72,0.00,,,0.00,WUHU21623XXSP,2013-02-27 17:30:00,
2013-02-27 11:35:00,26.6,18.8,29.88,NE,46,2.8,7.6,72,0.00,,,0.00,WUHU21623XXSP,2013-02-27 17:35:00,
2013-02-27 11:40:00,26.4,18.9,29.89,NNE,26,3.3,9.8,73,0.00,,,0.00,WUHU21623XXSP,2013-02-27 17:40:00,
2013-02-27 11:45:00,27.1,19.0,29.88,North,7,2.1,9.8,71,0.00,,,0.00,WUHU21623XXSP,2013-02-27 17:45:00,
2013-02-27 11:50:00,27.1,19.0,29.89,NW,321,0.9,5.6,71,0.00,,,0.00,WUHU21623XXSP,2013-02-27 17:50:00,
2013-02-27 11:55:00,27.3,19.2,29.88,NE,45,6.0,7.4,71,0.00,,,0.00,WUHU21623XXSP,2013-02-27 17:55:00,
2013-02-27 12:00:00,26.8,18.6,29.89,NE,55,3.7,8.5,71,0.00,,,0.00,WUHU21623XXSP,2013-02-27 18:00:00,
2013-02-27 12:05:00,26.8,18.6,29.88,NNW,337,2.9,8.5,71,0.00,,,0.00,WUHU21623XXSP,2013-02-27 18:05:00,
2013-02-27 12:10:00,27.3,19.2,29.89,North,5,4.6,8.1,71,0.00,,,0.00,WUHU21623XXSP,2013-02-27 18:10:00,
2013-02-27 12:15:00,27.1,19.0,29.88,NW,319,3.8,7.6,71,0.00,,,0.00,WUHU21623XXSP,2013-02-27 18:15:00,
2013-02-27 12:20:00,27.3,19.2,29.88,NNW,343,3.3,7.4,71,0.00,,,0.00,WUHU21623XXSP,2013-02-27 18:20:00,
2013-02-27 12:25:00,27.7,19.5,29.88,North,350,3.4,10.1,71,0.00,,,0.00,WUHU21623XXSP,2013-02-27 18:25:00,
2013-02-27 12:30:00,27.7,19.2,29.88,North,1,4.2,10.1,70,0.00,,,0.00,WUHU21623XXSP,2013-02-27 18:30:00,
2013-02-27 12:35:00,28.0,19.9,29.88,NNW,337,5.1,8.3,71,0.00,,,0.00,WUHU21623XXSP,2013-02-27 18:35:00,
2013-02-27 12:40:00,28.0,19.6,29.89,NNE,22,5.4,9.2,70,0.00,,,0.00,WUHU21623XXSP,2013-02-27 18:40:00,
2013-02-27 12:45:00,28.2,19.8,29.89,NNE,22,4.9,9.2,70,0.00,,,0.00,WUHU21623XXSP,2013-02-27 18:45:00,
2013-02-27 12:50:00,28.2,19.4,29.89,NNE,13,3.6,7.2,69,0.00,,,0.00,WUHU21623XXSP,2013-02-27 18:50:00,
2013-02-27 12:55:00,28.2,19.8,29.89,NNW,334,5.4,7.6,70,0.00,,,0.00,WUHU21623XXSP,2013-02-27 18:55:00,
2013-02-27 13:00:00,28.6,20.1,29.89,NW,315,4.0,7.6,70,0.00,,,0.00,WUHU21623XXSP,2013-02-27 19:00:00,
2013-02-27 13:05:00,28.6,20.1,29.89,NNW,346,4.8,7.4,70,0.00,,,0.00,WUHU21623XXSP,2013-02-27 19:05:00,
2013-02-27 13:10:00,28.6,19.7,29.88,NNW,337,4.9,7.4,69,0.00,,,0.00,WUHU21623XXSP,2013-02-27 19:10:00,
2013-02-27 13:15:00,28.8,20.3,29.89,NW,326,2.4,7.4,70,0.00,,,0.00,WUHU21623XXSP,2013-02-27 19:15:00,
2013-02-27 13:20:00,28.8,19.9,29.88,NNW,344,3.3,7.4,69,0.00,,,0.00,WUHU21623XXSP,2013-02-27 19:20:00,
2013-02-27 13:25:00,28.8,19.5,29.88,NE,45,4.0,7.6,68,0.00,,,0.00,WUHU21623XXSP,2013-02-27 19:25:00,
2013-02-27 13:30:00,28.8,19.9,29.88,NNE,18,1.2,7.6,69,0.00,,,0.00,WUHU21623XXSP,2013-02-27 19:30:00,
2013-02-27 13:35:00,29.8,20.2,29.88,North,10,5.5,7.6,67,0.00,,,0.00,WUHU21623XXSP,2013-02-27 19:35:00,
2013-02-27 13:40:00,30.0,20.3,29.88,North,3,4.3,7.8,67,0.00,,,0.00,WUHU21623XXSP,2013-02-27 19:40:00,
2013-02-27 13:45:00,30.6,20.5,29.88,NW,316,3.0,7.8,66,0.00,,,0.00,WUHU21623XXSP,2013-02-27 19:45:00,
2013-02-27 13:50:00,30.7,20.7,29.88,North,0,4.9,7.2,66,0.00,,,0.00,WUHU21623XXSP,2013-02-27 19:50:00,
2013-02-27 13:55:00,30.7,20.7,29.88,North,0,4.9,7.2,66,0.00,,,0.00,WUHU21623XXSP,2013-02-27 19:55:00,
2013-02-27 14:00:00,30.6,20.5,29.88,North,8,3.1,6.9,66,0.00,,,0.00,WUHU21623XXSP,2013-02-27 20:00:00,
2013-02-27 14:05:00,30.7,20.7,29.88,NW,313,1.6,6.9,66,0.00,,,0.00,WUHU21623XXSP,2013-02-27 20:05:00,
2013-02-27 14:10:00,31.3,21.3,29.88,North,349,3.9,7.2,66,0.00,,,0.00,WUHU21623XXSP,2013-02-27 20:10:00,
2013-02-27 14:15:00,31.5,21.4,29.88,WNW,292,7.2,8.1,66,0.00,,,0.00,WUHU21623XXSP,2013-02-27 20:15:00,
2013-02-27 14:20:00,31.3,21.2,29.88,North,0,3.6,8.1,66,0.00,,,0.00,WUHU21623XXSP,2013-02-27 20:20:00,
2013-02-27 14:25:00,31.5,21.4,29.89,NNW,337,4.7,8.7,66,0.00,,,0.00,WUHU21623XXSP,2013-02-27 20:25:00,
2013-02-27 14:30:00,31.6,21.6,29.88,North,0,5.6,11.4,66,0.00,,,0.00,WUHU21623XXSP,2013-02-27 20:30:00,
2013-02-27 14:35:00,31.6,21.2,29.88,NNE,22,3.8,11.4,65,0.00,,,0.00,WUHU21623XXSP,2013-02-27 20:35:00,
2013-02-27 14:40:00,31.8,21.7,29.88,NNW,337,4.0,6.7,66,0.00,,,0.00,WUHU21623XXSP,2013-02-27 20:40:00,
2013-02-27 14:45:00,31.6,21.2,29.89,North,6,3.2,10.1,65,0.00,,,0.00,WUHU21623XXSP,2013-02-27 20:45:00,
2013-02-27 14:50:00,31.3,21.2,29.89,NW,315,6.5,10.1,66,0.00,,,0.00,WUHU21623XXSP,2013-02-27 20:50:00,
2013-02-27 14:55:00,30.9,20.8,29.89,North,349,4.4,11.6,66,0.00,,,0.00,WUHU21623XXSP,2013-02-27 20:55:00,
2013-02-27 15:00:00,31.5,21.4,29.88,NNW,337,5.6,11.6,66,0.00,,,0.00,WUHU21623XXSP,2013-02-27 21:00:00,
2013-02-27 15:05:00,31.6,21.9,29.88,North,0,3.6,5.6,67,0.00,,,0.00,WUHU21623XXSP,2013-02-27 21:05:00,
2013-02-27 15:10:00,31.6,21.6,29.88,NNW,344,2.2,4.5,66,0.00,,,0.00,WUHU21623XXSP,2013-02-27 21:10:00,
2013-02-27 15:15:00,31.8,21.4,29.89,NW,323,2.3,6.3,65,0.00,,,0.00,WUHU21623XXSP,2013-02-27 21:15:00,
2013-02-27 15:20:00,31.8,21.7,29.88,NNW,332,5.1,7.4,66,0.00,,,0.00,WUHU21623XXSP,2013-02-27 21:20:00,
2013-02-27 15:25:00,31.6,21.6,29.89,NW,315,3.8,7.4,66,0.00,,,0.00,WUHU21623XXSP,2013-02-27 21:25:00,
2013-02-27 15:30:00,31.8,21.4,29.88,NNW,339,4.2,6.7,65,0.00,,,0.00,WUHU21623XXSP,2013-02-27 21:30:00,
2013-02-27 15:35:00,31.8,21.7,29.89,NW,315,6.3,7.8,66,0.00,,,0.00,WUHU21623XXSP,2013-02-27 21:35:00,
2013-02-27 15:40:00,31.8,21.4,29.88,NNW,336,4.9,8.9,65,0.00,,,0.00,WUHU21623XXSP,2013-02-27 21:40:00,
2013-02-27 15:45:00,31.8,21.7,29.89,NNW,342,2.2,8.9,66,0.00,,,0.00,WUHU21623XXSP,2013-02-27 21:45:00,
2013-02-27 15:50:00,31.8,21.4,29.89,NW,326,3.9,8.1,65,0.00,,,0.00,WUHU21623XXSP,2013-02-27 21:50:00,
2013-02-27 15:55:00,31.8,21.4,29.89,North,0,4.9,8.1,65,0.00,,,0.00,WUHU21623XXSP,2013-02-27 21:55:00,
2013-02-27 16:00:00,31.6,21.2,29.89,NW,315,4.9,9.6,65,0.00,,,0.00,WUHU21623XXSP,2013-02-27 22:00:00,
2013-02-27 16:05:00,31.6,21.6,29.90,North,0,4.0,9.6,66,0.00,,,0.00,WUHU21623XXSP,2013-02-27 22:05:00,
2013-02-27 16:10:00,31.6,21.6,29.90,North,0,4.5,8.7,66,0.00,,,0.00,WUHU21623XXSP,2013-02-27 22:10:00,
2013-02-27 16:15:00,31.6,21.6,29.90,NW,315,4.7,8.7,66,0.00,,,0.00,WUHU21623XXSP,2013-02-27 22:15:00,
2013-02-27 16:20:00,31.6,21.6,29.90,NNW,337,4.0,8.1,66,0.00,,,0.00,WUHU21623XXSP,2013-02-27 22:20:00,
2013-02-27 16:25:00,31.8,21.7,29.90,NW,326,3.3,6.5,66,0.00,,,0.00,WUHU21623XXSP,2013-02-27 22:25:00,
2013-02-27 16:30:00,31.6,21.2,29.90,North,0,3.0,6.7,65,0.00,,,0.00,WUHU21623XXSP,2013-02-27 22:30:00,
2013-02-27 16:35:00,31.3,21.2,29.90,NNW,337,4.3,9.8,66,0.00,,,0.00,WUHU21623XXSP,2013-02-27 22:35:00,
2013-02-27 16:40:00,31.3,21.2,29.90,WNW,292,7.8,9.8,66,0.00,,,0.00,WUHU21623XXSP,2013-02-27 22:40:00,
2013-02-27 16:45:00,31.1,21.4,29.90,NNW,327,2.7,9.6,67,0.00,,,0.00,WUHU21623XXSP,2013-02-27 22:45:00,
2013-02-27 16:50:00,30.9,20.8,29.90,NNW,327,5.1,10.1,66,0.00,,,0.00,WUHU21623XXSP,2013-02-27 22:50:00,
2013-02-27 16:55:00,30.9,20.8,29.91,North,0,6.0,10.1,66,0.00,,,0.00,WUHU21623XXSP,2013-02-27 22:55:00,
2013-02-27 17:00:00,30.9,20.8,29.91,North,0,5.6,7.4,66,0.00,,,0.00,WUHU21623XXSP,2013-02-27 23:00:00,
2013-02-27 17:05:00,30.9,20.8,29.91,North,0,4.7,7.6,66,0.00,,,0.00,WUHU21623XXSP,2013-02-27 23:05:00,
2013-02-27 17:10:00,30.9,20.8,29.91,NNW,334,3.6,8.1,66,0.00,,,0.00,WUHU21623XXSP,2013-02-27 23:10:00,
2013-02-27 17:15:00,30.7,20.7,29.91,North,0,5.8,8.9,66,0.00,,,0.00,WUHU21623XXSP,2013-02-27 23:15:00,
2013-02-27 17:20:00,30.7,20.7,29.91,NW,315,6.3,8.9,66,0.00,,,0.00,WUHU21623XXSP,2013-02-27 23:20:00,
2013-02-27 17:25:00,30.6,20.5,29.91,NNW,338,4.0,10.1,66,0.00,,,0.00,WUHU21623XXSP,2013-02-27 23:25:00,
2013-02-27 17:30:00,30.6,20.5,29.91,NW,315,4.7,10.1,66,0.00,,,0.00,WUHU21623XXSP,2013-02-27 23:30:00,
2013-02-27 17:35:00,30.4,20.7,29.91,NNW,337,5.8,8.5,67,0.00,,,0.00,WUHU21623XXSP,2013-02-27 23:35:00,
2013-02-27 17:40:00,30.2,20.5,29.91,NNW,337,7.8,8.9,67,0.00,,,0.00,WUHU21623XXSP,2013-02-27 23:40:00,
2013-02-27 17:45:00,30.0,20.3,29.91,NNW,342,4.5,11.2,67,0.00,,,0.00,WUHU21623XXSP,2013-02-27 23:45:00,
2013-02-27 17:50:00,29.8,20.2,29.92,North,0,6.0,11.2,67,0.00,,,0.00,WUHU21623XXSP,2013-02-27 23:50:00,
2013-02-27 17:55:00,29.7,20.0,29.92,NNW,337,7.4,10.5,67,0.00,,,0.00,WUHU21623XXSP,2013-02-27 23:55:00,
2013-02-27 18:01:00,29.5,19.8,29.92,WNW,292,6.9,10.5,67,0.00,,,0.00,WUHU21623XXSP,2013-02-28 00:01:00,
2013-02-27 18:06:00,29.1,19.5,29.92,NNW,337,8.5,12.5,67,0.00,,,0.00,WUHU21623XXSP,2013-02-28 00:06:00,
2013-02-27 18:11:00,29.1,19.5,29.93,NNW,337,6.5,12.5,67,0.00,,,0.00,WUHU21623XXSP,2013-02-28 00:11:00,
2013-02-27 18:16:00,29.1,19.5,29.93,North,350,4.7,9.6,67,0.00,,,0.00,WUHU21623XXSP,2013-02-28 00:16:00,
2013-02-27 18:21:00,28.9,19.7,29.93,North,0,3.6,7.4,68,0.00,,,0.00,WUHU21623XXSP,2013-02-28 00:21:00,
2013-02-27 18:26:00,28.9,19.7,29.93,NNW,344,5.6,9.2,68,0.00,,,0.00,WUHU21623XXSP,2013-02-28 00:26:00,
2013-02-27 18:31:00,28.9,20.1,29.93,NNE,22,3.8,9.2,69,0.00,,,0.00,WUHU21623XXSP,2013-02-28 00:31:00,
2013-02-27 18:36:00,28.8,19.9,29.93,WNW,292,2.7,6.0,69,0.00,,,0.00,WUHU21623XXSP,2013-02-28 00:36:00,
2013-02-27 18:41:00,28.8,20.3,29.93,NNW,330,1.6,6.0,70,0.00,,,0.00,WUHU21623XXSP,2013-02-28 00:41:00,
2013-02-27 18:46:00,28.8,20.3,29.93,NNW,346,4.9,7.6,70,0.00,,,0.00,WUHU21623XXSP,2013-02-28 00:46:00,
2013-02-27 18:51:00,28.8,20.3,29.93,NNW,337,5.8,9.6,70,0.00,,,0.00,WUHU21623XXSP,2013-02-28 00:51:00,
2013-02-27 18:56:00,28.6,20.1,29.93,NNW,337,9.4,11.9,70,0.00,,,0.00,WUHU21623XXSP,2013-02-28 00:56:00,
2013-02-27 19:01:00,28.6,20.1,29.94,NNW,337,8.1,16.3,70,0.00,,,0.00,WUHU21623XXSP,2013-02-28 01:01:00,
2013-02-27 19:06:00,28.6,20.1,29.94,NE,45,4.3,16.3,70,0.00,,,0.00,WUHU21623XXSP,2013-02-28 01:06:00,
2013-02-27 19:11:00,28.6,20.4,29.94,North,11,1.9,6.7,71,0.00,,,0.00,WUHU21623XXSP,2013-02-28 01:11:00,
2013-02-27 19:16:00,28.6,20.4,29.94,NNW,343,3.0,7.4,71,0.00,,,0.00,WUHU21623XXSP,2013-02-28 01:16:00,
2013-02-27 19:21:00,28.2,20.1,29.94,North,354,4.2,8.1,71,0.00,,,0.00,WUHU21623XXSP,2013-02-28 01:21:00,
2013-02-27 19:26:00,28.2,20.4,29.94,NNE,22,6.7,8.5,72,0.00,,,0.00,WUHU21623XXSP,2013-02-28 01:26:00,
2013-02-27 19:31:00,28.2,20.4,29.94,NNW,331,5.4,10.1,72,0.00,,,0.00,WUHU21623XXSP,2013-02-28 01:31:00,
2013-02-27 19:36:00,28.2,20.4,29.94,NW,315,5.1,10.1,72,0.00,,,0.00,WUHU21623XXSP,2013-02-28 01:36:00,
2013-02-27 19:41:00,28.0,20.5,29.95,North,0,8.7,8.7,73,0.00,,,0.00,WUHU21623XXSP,2013-02-28 01:41:00,
2013-02-27 19:46:00,27.7,20.1,29.95,NNW,331,5.8,9.4,73,0.00,,,0.00,WUHU21623XXSP,2013-02-28 01:46:00,
2013-02-27 19:51:00,27.5,20.0,29.95,NNW,332,5.0,9.4,73,0.00,,,0.00,WUHU21623XXSP,2013-02-28 01:51:00,
2013-02-27 19:56:00,27.3,19.8,29.95,North,0,6.7,8.9,73,0.00,,,0.00,WUHU21623XXSP,2013-02-28 01:56:00,
2013-02-27 20:01:00,27.1,19.6,29.95,North,0,7.8,8.9,73,0.00,,,0.00,WUHU21623XXSP,2013-02-28 02:01:00,
2013-02-27 20:06:00,27.0,19.4,29.95,North,0,9.6,10.7,73,0.00,,,0.00,WUHU21623XXSP,2013-02-28 02:06:00,
2013-02-27 20:11:00,26.8,19.2,29.95,NNW,337,8.7,11.9,73,0.00,,,0.00,WUHU21623XXSP,2013-02-28 02:11:00,
2013-02-27 20:16:00,26.8,19.5,29.96,NNW,337,6.0,11.9,74,0.00,,,0.00,WUHU21623XXSP,2013-02-28 02:16:00,
2013-02-27 20:21:00,26.6,19.4,29.96,NNW,337,5.1,8.5,74,0.00,,,0.00,WUHU21623XXSP,2013-02-28 02:21:00,
2013-02-27 20:26:00,26.4,19.2,29.96,NW,315,6.9,9.6,74,0.00,,,0.00,WUHU21623XXSP,2013-02-28 02:26:00,
2013-02-27 20:31:00,26.4,19.2,29.96,NNW,337,8.3,10.1,74,0.00,,,0.00,WUHU21623XXSP,2013-02-28 02:31:00,
2013-02-27 20:36:00,26.4,19.2,29.96,WNW,292,4.7,10.1,74,0.00,,,0.00,WUHU21623XXSP,2013-02-28 02:36:00,
2013-02-27 20:41:00,26.2,19.3,29.96,North,352,5.8,10.3,75,0.00,,,0.00,WUHU21623XXSP,2013-02-28 02:41:00,
2013-02-27 20:46:00,26.2,19.3,29.96,NNW,337,7.2,13.2,75,0.00,,,0.00,WUHU21623XXSP,2013-02-28 02:46:00,
2013-02-27 20:51:00,26.1,19.1,29.96,NNW,337,8.3,13.2,75,0.00,,,0.00,WUHU21623XXSP,2013-02-28 02:51:00,
2013-02-27 20:56:00,25.9,19.0,29.96,NNW,343,4.5,10.3,75,0.00,,,0.00,WUHU21623XXSP,2013-02-28 02:56:00,
2013-02-27 21:01:00,25.9,19.3,29.96,North,0,3.8,8.7,76,0.00,,,0.00,WUHU21623XXSP,2013-02-28 03:01:00,
2013-02-27 21:06:00,25.9,19.3,29.96,NNW,337,5.8,8.7,76,0.00,,,0.00,WUHU21623XXSP,2013-02-28 03:06:00,
2013-02-27 21:11:00,25.7,19.1,29.96,NNW,337,7.4,9.2,76,0.00,,,0.00,WUHU21623XXSP,2013-02-28 03:11:00,
2013-02-27 21:16:00,25.7,19.1,29.96,NNE,22,9.2,9.8,76,0.00,,,0.00,WUHU21623XXSP,2013-02-28 03:16:00,
2013-02-27 21:21:00,25.5,18.6,29.96,NW,322,2.0,9.8,75,0.00,,,0.00,WUHU21623XXSP,2013-02-28 03:21:00,
2013-02-27 21:26:00,25.5,18.6,29.96,NNW,341,3.5,10.1,75,0.00,,,0.00,WUHU21623XXSP,2013-02-28 03:26:00,
2013-02-27 21:31:00,25.5,18.6,29.96,NNW,340,5.0,10.1,75,0.00,,,0.00,WUHU21623XXSP,2013-02-28 03:31:00,
2013-02-27 21:36:00,25.3,18.5,29.97,NW,315,6.5,9.2,75,0.00,,,0.00,WUHU21623XXSP,2013-02-28 03:36:00,
2013-02-27 21:41:00,25.3,18.5,29.97,NNW,337,5.8,9.2,75,0.00,,,0.00,WUHU21623XXSP,2013-02-28 03:41:00,
2013-02-27 21:46:00,25.2,18.6,29.97,North,0,4.5,7.4,76,0.00,,,0.00,WUHU21623XXSP,2013-02-28 03:46:00,
2013-02-27 21:51:00,25.2,18.6,29.97,NNW,337,2.9,10.7,76,0.00,,,0.00,WUHU21623XXSP,2013-02-28 03:51:00,
2013-02-27 21:56:00,25.2,18.6,29.97,NW,316,5.0,10.7,76,0.00,,,0.00,WUHU21623XXSP,2013-02-28 03:56:00,
2013-02-27 22:01:00,25.0,18.4,29.98,NNW,343,5.3,8.7,76,0.00,,,0.00,WUHU21623XXSP,2013-02-28 04:01:00,
2013-02-27 22:06:00,25.0,18.4,29.97,North,351,3.5,12.3,76,0.00,,,0.00,WUHU21623XXSP,2013-02-28 04:06:00,
2013-02-27 22:11:00,25.0,18.4,29.98,NNW,332,4.0,12.3,76,0.00,,,0.00,WUHU21623XXSP,2013-02-28 04:11:00,
2013-02-27 22:16:00,25.0,18.4,29.98,NNE,22,4.7,8.3,76,0.00,,,0.00,WUHU21623XXSP,2013-02-28 04:16:00,
2013-02-27 22:21:00,25.0,18.4,29.98,NNW,337,6.5,8.3,76,0.00,,,0.00,WUHU21623XXSP,2013-02-28 04:21:00,
2013-02-27 22:26:00,24.8,18.3,29.98,North,0,1.6,7.6,76,0.00,,,0.00,WUHU21623XXSP,2013-02-28 04:26:00,
2013-02-27 22:31:00,24.6,18.1,29.98,NNW,348,2.2,6.7,76,0.00,,,0.00,WUHU21623XXSP,2013-02-28 04:31:00,
2013-02-27 22:36:00,24.6,18.1,29.98,North,0,3.0,6.7,76,0.00,,,0.00,WUHU21623XXSP,2013-02-28 04:36:00,
2013-02-27 22:41:00,24.6,18.1,29.98,NNW,337,2.9,6.7,76,0.00,,,0.00,WUHU21623XXSP,2013-02-28 04:41:00,
2013-02-27 22:46:00,24.6,17.8,29.98,NNE,29,2.8,8.3,75,0.00,,,0.00,WUHU21623XXSP,2013-02-28 04:46:00,
2013-02-27 22:51:00,24.6,17.8,29.98,NNW,337,5.6,8.7,75,0.00,,,0.00,WUHU21623XXSP,2013-02-28 04:51:00,
2013-02-27 22:56:00,24.6,18.1,29.98,North,10,5.3,8.7,76,0.00,,,0.00,WUHU21623XXSP,2013-02-28 04:56:00,
2013-02-27 23:00:00,24.6,18.1,29.98,North,357,3.7,10.5,76,0.00,,,0.00,WUHU21623XXSP,2013-02-28 05:00:00,
2013-02-27 23:05:00,24.4,17.6,29.98,North,6,3.5,10.5,75,0.00,,,0.00,WUHU21623XXSP,2013-02-28 05:05:00,
2013-02-27 23:10:00,24.4,17.9,29.98,North,0,5.4,10.5,76,0.00,,,0.00,WUHU21623XXSP,2013-02-28 05:10:00,
2013-02-27 23:15:00,24.4,17.9,29.98,North,9,3.7,10.5,76,0.00,,,0.00,WUHU21623XXSP,2013-02-28 05:15:00,
2013-02-27 23:20:00,24.4,17.9,29.98,North,1,3.0,8.7,76,0.00,,,0.00,WUHU21623XXSP,2013-02-28 05:20:00,
2013-02-27 23:25:00,24.4,17.9,29.98,NNE,22,1.6,6.7,76,0.00,,,0.00,WUHU21623XXSP,2013-02-28 05:25:00,
2013-02-27 23:30:00,24.4,17.9,29.98,North,355,2.4,7.2,76,0.00,,,0.00,WUHU21623XXSP,2013-02-28 05:30:00,
2013-02-27 23:35:00,24.4,17.9,29.99,North,358,3.9,9.8,76,0.00,,,0.00,WUHU21623XXSP,2013-02-28 05:35:00,
2013-02-27 23:40:00,24.1,17.6,29.98,NW,315,3.6,9.8,76,0.00,,,0.00,WUHU21623XXSP,2013-02-28 05:40:00,
2013-02-27 23:45:00,24.1,17.9,29.98,NNE,22,4.3,8.3,77,0.00,,,0.00,WUHU21623XXSP,2013-02-28 05:45:00,
2013-02-27 23:50:00,24.1,17.9,29.98,NE,45,7.8,8.3,77,0.00,,,0.00,WUHU21623XXSP,2013-02-28 05:50:00,
2013-02-27 23:55:00,23.9,17.7,29.98,NNW,337,1.3,7.8,77,0.00,,,0.00,WUHU21623XXSP,2013-02-28 05:55:00,